Location: Dealu Bune?ti
(46.2000°N, 22.5833°E)
Time: 15:25:53
(UTC+00:00)

Daily predictions for brighter satellites

Satellite Brightness Start Highest point End
(mag) Time Altitude Azimuth Time Altitude Azimuth Time Altitude Azimuth
NOSS 3-1 (C) 4.2 15:52:19 10° NW 15:59:52 90° NE 16:08:36 10° SE
Lacrosse 5 2.0 15:54:47 10° SW 15:59:52 85° NW 16:04:58 10° NE
USA 215 4.0 15:54:07 10° ENE 16:00:03 39° NNE 16:06:01 10° NW
Cosmos 2056 Rocket 3.7 15:55:25 10° SSW 16:00:38 81° WNW 16:05:49 10° NNE
Meteor 2-10 4.0 15:55:36 10° S 16:00:44 89° ESE 16:05:49 10° NNE
ERBS 2.2 15:57:47 10° SW 16:01:06 80° SE 16:04:28 10° NE
Cosmos 676 Rocket 4.0 15:56:04 10° NNW 16:01:17 85° ENE 16:06:29 10° SSE
COSMO-SKYMED 1 3.4 15:57:30 10° NE 16:01:20 30° E 16:05:09 10° SSE
Okean 1-7 Rocket 4.4 15:57:10 10° NNW 16:01:34 58° W 16:05:54 10° S
Envisat 3.9 15:57:41 10° S 16:02:38 55° W 16:07:39 10° NNW
USA 306 3.9 15:59:05 10° W 16:03:08 39° NNW 16:07:11 10° NE
ATLAS CENTAUR R/B 4.2 16:01:36 10° WNW 16:04:20 19° WSW 16:07:07 10° SSW
H-2A R/B 3.5 16:00:47 10° ESE 16:04:26 19° ENE 16:08:07 10° NNE
USA 276 2.1 16:06:00 10° WNW 16:09:14 81° NNE 16:12:26 10° ESE
Cosmos 1850 Rocket 4.4 16:05:48 10° N 16:10:50 43° ENE 16:15:54 10° SE
Okean-O 3.4 16:07:00 10° SE 16:10:51 30° ENE 16:14:43 10° N
SeaSat 1 3.5 16:07:49 10° ESE 16:11:54 27° NE 16:15:59 10° N
Meteor 1-21 Rocket 4.4 16:06:25 10° N 16:12:24 89° ENE 16:18:18 10° S
SAR-Lupe-4 3.7 16:09:04 10° NNE 16:12:35 50° E 16:16:04 10° S
Cosmos 1328 4.2 16:10:05 10° N 16:13:48 38° ENE 16:17:29 10° SE
NOAA 11 4.2 16:09:32 10° SSE 16:14:59 77° ENE 16:20:27 10° N
H-2A R/B 3.7 16:12:30 10° N 16:16:24 36° WNW 16:20:13 10° SW
COSMOS 2487 3.4 16:13:56 10° N 16:16:56 27° ENE 16:19:54 10° ESE
Cosmos 1452 Rocket 3.7 16:12:31 10° S 16:17:36 52° ESE 16:22:43 10° NNE
Cosmos 2098 Rocket 2.5 16:16:06 10° N 16:19:40 78° W 16:22:41 10° S
Cosmos 1825 Rocket 4.2 16:17:20 10° N 16:21:27 35° ENE 16:25:30 10° SE
YAOGAN 1 3.4 16:18:43 10° SE 16:22:28 30° ENE 16:26:14 10° N
Cosmos 1300 4.0 16:21:16 10° SE 16:24:03 20° E 16:26:50 10° NE
Cosmos 1656 Rocket 3.7 16:18:34 10° SSW 16:24:07 86° ESE 16:29:47 10° NNE
Cosmos 304 Rocket 3.7 16:19:43 10° SSW 16:24:29 79° ESE 16:29:18 10° NNE
Cosmos 2266 Rocket 3.9 16:20:03 10° N 16:26:15 75° E 16:32:31 10° SSE
CZ-2C R/B 3.8 16:21:23 10° SE 16:26:42 38° ENE 16:31:58 10° N
Cosmos 2369 Rocket 3.0 16:21:48 10° SW 16:27:20 54° WNW 16:32:57 10° NNE
Cosmos 2297 Rocket 3.7 16:23:29 10° N 16:27:24 19° NE 16:30:18 13° ENE
SAR-Lupe-1 4.0 16:26:54 10° NNE 16:30:31 78° ESE 16:34:06 10° S
Cosmos 1726 3.8 16:28:36 10° SW 16:32:05 37° WNW 16:35:35 10° N
Cosmos 1758 Rocket 3.5 16:32:21 10° N 16:36:47 64° E 16:41:08 10° SSE
Cosmos 1818 3.6 16:31:36 10° SW 16:37:02 89° SE 16:42:31 10° NE
Cosmos 1689 Rocket 1.8 16:36:51 10° NNE 16:39:46 77° ESE 16:42:38 10° S
Cosmos 1726 Rocket 4.2 16:35:58 10° SSE 16:39:49 33° E 16:43:43 10° NNE
Meteor 2-21 4.4 16:35:27 10° N 16:41:38 71° E 16:47:45 10° SSE
Meteor 2-14 Rocket 4.4 16:35:36 10° N 16:41:44 67° ENE 16:47:50 10° SSE
USA 307 4.2 16:39:32 10° WNW 16:43:23 31° N 16:46:32 14° NE
Cosmos 2219 4.3 16:41:47 10° N 16:46:31 25° NE 16:48:58 19° E
PSLV R/B 3.9 16:42:35 10° NNE 16:46:49 75° ESE 16:50:58 10° S
Helios 1A Rocket 2.8 16:43:46 10° SSE 16:47:54 80° ENE 16:52:03 10° NNW
Cosmos 1953 3.9 16:44:13 10° SW 16:47:56 38° WNW 16:51:40 10° N
USA 308 4.3 16:44:10 10° WNW 16:48:00 30° N 16:50:55 15° NE
SKYMED 2 3.6 16:45:11 10° NNE 16:49:33 88° WNW 16:53:54 10° SSW
NOSS 2-1 (E) 4.2 16:47:54 10° WSW 16:51:03 38° NW 16:54:30 10° NNE
Gbstr 26 Del rocket 4.3 16:45:26 10° WNW 16:52:00 81° SSW 16:59:04 13° SE
Cosmos 1606 Rocket 3.5 16:48:13 10° S 16:52:27 56° E 16:56:45 10° NNE
Geosat 3.9 16:47:54 10° NNE 16:52:56 70° ESE 16:57:56 10° SSW
SL-4 R/B 1.8 16:51:59 10° WSW 16:55:32 71° NNW 16:57:35 25° NE
FALCON 9 DEB 3.9 16:52:34 10° W 16:55:53 47° NNW 16:57:46 22° NE
GEOS 3 Rocket 3.8 16:51:54 10° SE 16:57:12 78° SW 17:02:38 10° NW
Cosmos 1340 3.7 17:04:16 10° N 17:06:53 28° NE 17:06:53 28° NE
Cosmos 2058 Rocket 3.4 17:05:39 10° SSE 17:09:51 43° E 17:14:07 10° NNE
Cosmos 1331 Rocket 3.9 17:05:13 10° S 17:10:17 58° ESE 17:15:21 10° NNE
Meteor 2-16 Rocket 4.3 17:07:12 10° N 17:13:19 79° E 17:19:25 10° SSE
Cosmos 2228 3.0 17:10:02 10° SSW 17:14:16 80° W 17:18:32 10° N
BREEZE-M R/B 3.8 17:11:04 10° W 17:15:01 64° N 17:19:02 26° ENE
Cosmos 1953 Rocket 3.4 17:13:32 10° N 17:17:57 87° E 17:22:21 10° S
Cosmos 292 Rocket 3.9 17:13:23 10° S 17:17:59 49° ESE 17:20:28 25° NE
Aureole 3 Rocket 2.7 17:17:59 50° ESE 17:18:07 51° E 17:22:19 10° NNE
MOS 1 Rocket 3.2 17:15:56 10° NNE 17:20:23 60° E 17:25:03 10° S
CZ-4C R/B 4.5 17:19:39 10° NW 17:23:41 17° N 17:27:39 11° NE
CZ-4 R/B 2.2 17:21:46 10° S 17:25:37 50° W 17:29:26 10° NNW
Cosmos 2227 Rocket 2.7 17:25:40 10° NNW 17:30:56 38° NE 17:31:21 37° ENE
Cosmos 1110 Rocket 4.0 17:26:39 10° SSW 17:31:55 84° WNW 17:37:12 10° NNE
Cosmos 1553 Rocket 3.9 17:28:00 10° S 17:34:18 66° E 17:40:34 10° NNE
Milstar 3 4.5 17:30:31 10° SSW 17:34:45 17° SSE 17:36:16 16° SSE
Cosmos 1302 Rocket 4.1 17:30:24 10° S 17:35:27 50° ESE 17:35:40 50° E
ERBS 4.3 17:35:04 10° WNW 17:37:42 21° NNW 17:38:17 20° N
USA 305 4.2 17:34:10 10° WNW 17:37:56 28° N 17:38:31 27° NNE
ATLAS 5 CENTAUR R/B 3.9 17:35:50 10° WNW 17:38:58 19° NNW 17:42:25 10° NNE
USA 215 3.2 17:40:04 41° ESE 17:42:33 74° NNE 17:49:04 10° NW
H-2A R/B 2.3 17:37:53 10° S 17:43:13 75° WSW 17:48:42 10° NNW
Lacrosse 5 3.3 17:38:57 10° W 17:43:25 30° NNW 17:45:37 22° NNE
USA 306 4.2 17:40:13 10° WNW 17:43:57 28° N 17:44:16 28° N
ATLAS 2AS CENTAUR R/B 4.2 17:38:24 10° NW 17:44:27 24° NNE 17:46:54 20° NE
Cosmos 1892 4.2 17:41:01 10° N 17:42:51 26° N 17:42:51 26° N
USA 276 4.4 17:42:47 10° W 17:45:13 20° SW 17:45:14 20° SW
Cosmos 968 Rocket 4.0 17:40:20 10° N 17:44:38 41° NE 17:44:38 41° NE
ARGOS 3.1 17:42:15 23° SSE 17:45:47 88° ENE 17:51:15 10° NNW
Cosmos 2263 Rocket 4.3 17:46:15 10° N 17:47:57 12° NNE 17:47:57 12° NNE
SeaSat 1 3.0 17:45:48 20° S 17:49:08 56° WSW 17:54:00 10° NW
CZ-2C R/B 4.2 17:45:42 10° NNE 17:47:37 21° NNE 17:47:37 21° NNE
CSL-04 Rocket 4.1 17:46:27 10° S 17:51:56 62° WSW 17:57:27 10° NNW
YAOGAN 1 4.5 17:54:45 10° SSW 17:58:32 29° W 18:02:19 10° NW
Cosmos 1745 Rocket 3.8 17:52:34 10° N 17:58:51 78° E 18:00:55 45° SSE
Cosmos 1400 Rocket 3.9 18:02:30 10° SSW 18:12:02 - N 18:05:30 41° SW
IRS-1A Rocket 4.1 18:09:32 76° NE 18:09:32 76° NE 18:14:53 10° NNW
Cosmos 2297 Rocket 2.1 18:06:36 10° NNW 18:12:08 84° N 18:12:08 84° N
NOSS 2-2 (C) 4.4 18:09:33 10° NW 18:15:09 87° NE 18:15:46 75° SE
Ariane Rocket 3.6 18:26:41 51° NNW 18:26:41 51° NNW 18:30:31 10° NNW
Cosmos 1709 Rocket 4.3 18:23:13 10° N 18:28:15 57° NNE 18:28:15 57° NNE
Cosmos 2219 3.5 18:25:27 10° NNW 18:30:55 65° W 18:30:55 65° W
CZ-4C R/B 4.2 19:08:48 10° NNW 19:12:50 26° N 19:12:50 26° N
Cosmos 2227 Rocket 3.8 19:09:47 10° NW 19:13:12 30° WNW 19:13:12 30° WNW
USA 215 4.5 19:27:26 34° W 19:27:26 34° W 19:31:54 10° WNW
ATLAS 2AS CENTAUR R/B 4.1 19:29:51 10° NW 19:34:19 35° NNW 19:34:19 35° NNW
